| time (UTC) | temp F | wind direction | speed MPH | gust MPH | rain 1hr in | rain 24hr in | rain mn in | humidity % | barometer mb |
| 20260505003022 | 60 | 106 | 5.0 | 17.0 | 0.00 | 0.00 | 0.00 | 38 | 1013.5 |
| 20260505001509 | 61 | 72 | 4.0 | 9.0 | 0.00 | 0.00 | 0.00 | 38 | 1013.5 |
| 20260505000005 | 60 | 79 | 6.0 | 12.0 | 0.00 | 0.00 | 0.00 | 39 | 1013.4 |
| 20260504234504 | 60 | 348 | 5.0 | 13.0 | 0.00 | 0.00 | 0.00 | 39 | 1013.4 |
| 20260504233006 | 61 | 98 | 4.0 | 14.0 | 0.00 | 0.00 | 0.00 | 39 | 1013.4 |
| 20260504231507 | 62 | 161 | 6.0 | 18.0 | 0.00 | 0.00 | 0.00 | 39 | 1013.4 |
| 20260504230012 | 62 | 103 | 5.0 | 14.0 | 0.00 | 0.00 | 0.00 | 38 | 1013.2 |
| 20260504224503 | 62 | 56 | 8.0 | 12.0 | 0.00 | 0.00 | 0.00 | 38 | 1013.1 |
| 20260504223003 | 61 | 47 | 5.0 | 17.0 | 0.00 | 0.00 | 0.00 | 39 | 1013.2 |
| 20260504221507 | 61 | 81 | 7.0 | 14.0 | 0.00 | 0.00 | 0.00 | 39 | 1013.2 |
| 20260504220009 | 62 | 97 | 3.0 | 8.0 | 0.00 | 0.00 | 0.00 | 39 | 1013.2 |
| 20260504214514 | 61 | 100 | 5.0 | 8.0 | 0.00 | 0.00 | 0.00 | 37 | 1013.3 |
| 20260504213020 | 61 | 332 | 1.0 | 11.0 | 0.00 | 0.00 | 0.00 | 35 | 1013.2 |
| 20260504211503 | 62 | 87 | 1.0 | 12.0 | 0.00 | 0.00 | 0.00 | 35 | 1013.2 |
| 20260504210005 | 63 | 113 | 6.0 | 12.0 | 0.00 | 0.00 | 0.00 | 36 | 1013.2 |
| 20260504204525 | 63 | 226 | 1.0 | 6.0 | 0.00 | 0.00 | 0.00 | 39 | 1013.2 |
| 20260504203023 | 62 | 75 | 1.0 | 10.0 | 0.00 | 0.00 | 0.00 | 36 | 1013.2 |
| 20260504201522 | 62 | 110 | 4.0 | 12.0 | 0.00 | 0.00 | 0.00 | 35 | 1013.4 |
| 20260504200005 | 63 | 96 | 6.0 | 10.0 | 0.00 | 0.00 | 0.00 | 37 | 1013.2 |
| 20260504194508 | 63 | 120 | 4.0 | 8.0 | 0.00 | 0.00 | 0.00 | 39 | 1013.2 |
| 20260504193017 | 63 | 119 | 2.0 | 4.0 | 0.00 | 0.00 | 0.00 | 36 | 1013.4 |
| 20260504191524 | 62 | 4 | 2.0 | 6.0 | 0.00 | 0.00 | 0.00 | 36 | 1013.5 |
| 20260504190021 | 62 | 119 | 5.0 | 13.0 | 0.00 | 0.00 | 0.00 | 39 | 1013.6 |
| 20260504184505 | 62 | 342 | 3.0 | 12.0 | 0.00 | 0.00 | 0.00 | 35 | 1013.7 |
| 20260504183012 | 61 | 91 | 4.0 | 9.0 | 0.00 | 0.00 | 0.00 | 39 | 1013.8 |
| 20260504181517 | 61 | 95 | 5.0 | 16.0 | 0.00 | 0.00 | 0.00 | 38 | 1013.8 |
| 20260504180021 | 61 | 101 | 9.0 | 14.0 | 0.00 | 0.00 | 0.00 | 38 | 1013.8 |
| 20260504174524 | 62 | 86 | 4.0 | 11.0 | 0.00 | 0.00 | 0.00 | 40 | 1013.9 |
| 20260504173008 | 61 | 155 | 4.0 | 9.0 | 0.00 | 0.00 | 0.00 | 40 | 1013.9 |
| 20260504171513 | 61 | 215 | 2.0 | 7.0 | 0.00 | 0.00 | 0.00 | 40 | 1013.9 |
| 20260504081524 | 51 | 281 | 3.0 | 6.0 | 0.00 | 0.00 | 0.00 | 65 | 1010.7 |
| 20260504050004 | 53 | 283 | 0.0 | 0.0 | 0.00 | 0.00 | 0.00 | 63 | 1009.1 |
| 20260504044509 | 53 | 286 | 0.0 | 2.0 | 0.00 | 0.00 | 0.00 | 65 | 1009.0 |
| 20260504043011 | 56 | 306 | 0.0 | 0.0 | 0.00 | 0.00 | 0.00 | 60 | 1008.9 |
| 20260504041515 | 58 | 20 | 0.0 | 1.0 | 0.00 | 0.00 | 0.00 | 56 | 1009.0 |
| 20260504040019 | 60 | 33 | 0.0 | 3.0 | 0.00 | 0.00 | 0.00 | 52 | 1009.1 |
| 20260504034504 | 61 | 13 | 1.0 | 2.0 | 0.00 | 0.00 | 0.00 | 53 | 1008.9 |
| 20260504033006 | 61 | 346 | 0.0 | 2.0 | 0.00 | 0.00 | 0.00 | 53 | 1008.7 |
| 20260504031510 | 61 | 4 | 1.0 | 2.0 | 0.00 | 0.00 | 0.00 | 57 | 1008.6 |
| 20260504030018 | 62 | 76 | 0.0 | 1.0 | 0.00 | 0.00 | 0.00 | 56 | 1008.6 |
| 20260504024520 | 64 | 78 | 0.0 | 1.0 | 0.00 | 0.00 | 0.00 | 48 | 1008.6 |
| 20260504023005 | 66 | 77 | 0.0 | 1.0 | 0.00 | 0.00 | 0.00 | 43 | 1008.6 |
| 20260504021508 | 68 | 120 | 1.0 | 2.0 | 0.00 | 0.00 | 0.00 | 39 | 1008.7 |
| 20260504020012 | 69 | 171 | 1.0 | 3.0 | 0.00 | 0.00 | 0.00 | 39 | 1008.7 |
| 20260504014537 | 71 | 160 | 2.0 | 5.0 | 0.00 | 0.00 | 0.00 | 36 | 1008.8 |
| 20260504013021 | 72 | 155 | 2.0 | 5.0 | 0.00 | 0.00 | 0.00 | 36 | 1008.8 |
| 20260504011506 | 72 | 160 | 1.0 | 5.0 | 0.00 | 0.00 | 0.00 | 35 | 1008.9 |
| 20260504010012 | 72 | 200 | 4.0 | 6.0 | 0.00 | 0.00 | 0.00 | 33 | 1009.0 |
| 20260504004514 | 73 | 245 | 3.0 | 6.0 | 0.00 | 0.00 | 0.00 | 34 | 1009.1 |